RADUGA 17 [-]

Last updated on Oct. 27, 2020, 5:53 a.m. UTC

1 16250U 85107A   20300.63410410  .00000070  00000-0  00000-0 0  9996
2 16250  13.0026 334.5283 0010405 167.1841 313.9370  1.00171157131042
UTC
Height (km)
Latitude
Longitude
Inclination
Orbital Period
UTC large
Height (km)
Speed (km/s)
/
Latitude / Longitude
Inclination (degrees)
Orbital Period (minutes)
Azimuth
Elevation
Range (km)
Doppler Factor
iOS Compass Heading
iOS Angle

Next 30 passes for location: Hong Kong

Rise time Rise Azimuth (degrees) Set time Set Azimuth (degrees) Duration Max altitude (degrees)

No matching passes for this satellites